FW7316 Weather Reports


time (UTC)temp
F
wind
direction
speed
knots
gust
knots
rain 1hr
in
rain 24hr
in
rain mn
in
humidity
%
barometer
mb
20260505041703 56 188 3.5 7.8 0.03 0.03 0.03 87 1012.5
20260505041600 56 188 3.5 7.8 0.03 0.03 0.03 87 1012.5
20260505041500 56 182 2.6 7.0 0.03 0.03 0.03 87 1012.5
20260505041407 55 171 2.6 7.8 0.03 0.03 0.03 87 1012.5
20260505041301 56 166 1.7 7.8 0.03 0.03 0.03 87 1012.5
20260505041103 56 177 1.7 7.8 0.03 0.03 0.03 87 1012.5
20260505041001 56 199 2.6 7.8 0.03 0.03 0.03 87 1012.5
20260505040900 56 198 0.0 7.8 0.03 0.03 0.03 87 1012.5
20260505040803 56 196 2.6 7.8 0.03 0.03 0.03 87 1012.5
20260505040700 56 188 2.6 7.8 0.03 0.03 0.03 87 1012.5
20260505040600 56 165 3.5 7.8 0.03 0.03 0.03 86 1012.5
20260505040502 56 145 3.5 7.8 0.03 0.03 0.03 86 1012.5
20260505040359 56 198 5.2 6.1 0.03 0.03 0.03 86 1012.5
20260505040300 56 176 1.7 6.1 0.03 0.03 0.03 86 1012.5
20260505040202 56 175 0.9 6.1 0.03 0.03 0.03 86 1012.5
20260505040111 56 171 1.7 6.1 0.02 0.02 0.02 86 1012.5
20260505040004 56 180 1.7 6.1 0.02 0.02 0.02 86 1012.5
20260505035903 56 182 5.2 6.1 0.02 0.02 0.02 85 1012.5
20260505035801 56 175 2.6 6.1 0.02 0.02 0.02 85 1012.6
20260505035700 56 196 4.3 6.1 0.02 0.02 0.02 85 1012.5
20260505035605 56 173 0.9 5.2 0.02 0.02 0.02 85 1012.5
20260505035359 56 178 4.3 5.2 0.02 0.02 0.02 84 1012.6
20260505035304 56 176 1.7 5.2 0.02 0.02 0.02 84 1012.6
20260505035159 56 178 0.0 5.2 0.02 0.02 0.02 84 1012.5
20260505034900 56 178 1.7 5.2 0.02 0.02 0.02 84 1012.6
20260505034759 56 173 2.6 5.2 0.02 0.02 0.02 83 1012.6
20260505034704 56 180 3.5 5.2 0.02 0.02 0.02 83 1012.6
20260505034502 56 180 1.7 7.8 0.02 0.02 0.02 83 1012.6
20260505034402 56 180 2.6 7.8 0.02 0.02 0.02 83 1012.6
20260505034259 56 180 0.9 7.8 0.02 0.02 0.02 82 1012.6
20260505034000 56 182 3.5 8.7 0.01 0.01 0.01 82 1012.6
20260505033900 56 175 3.5 8.7 0.01 0.01 0.01 82 1012.6
20260505033803 56 169 5.2 8.7 0.01 0.01 0.01 82 1012.6
20260505033700 56 158 3.5 8.7 0.01 0.01 0.01 82 1012.6
20260505033506 56 188 4.3 8.7 0.01 0.01 0.01 82 1012.6
20260505033401 57 186 4.3 8.7 0.01 0.01 0.01 82 1012.7
20260505033300 57 184 6.1 8.7 0.01 0.01 0.01 82 1012.7
20260505033202 57 187 6.1 8.7 0.01 0.01 0.01 82 1012.7
20260505033101 57 182 7.0 7.8 0.01 0.01 0.01 82 1012.8
20260505032903 57 178 3.5 7.8 0.01 0.01 0.01 81 1012.7
20260505032801 57 198 5.2 7.0 0.01 0.01 0.01 81 1012.8
20260505032701 57 176 4.3 7.0 0.01 0.01 0.01 81 1012.7
20260505032603 57 188 5.2 7.0 0.01 0.01 0.01 81 1012.7
20260505032502 57 188 4.3 7.0 0.01 0.01 0.01 81 1012.8
20260505032402 57 189 3.5 7.0 0.00 0.00 0.00 81 1012.7
20260505032159 57 190 4.3 7.0 0.00 0.00 0.00 81 1012.8
20260505031703 57 179 3.5 5.2 0.00 0.00 0.00 80 1012.8
20260505031600 57 186 4.3 5.2 0.00 0.00 0.00 80 1012.8
20260505031502 57 192 4.3 5.2 0.00 0.00 0.00 80 1012.9
20260505031301 57 180 3.5 3.5 0.00 0.00 0.00 79 1012.9
20260505031159 57 180 3.5 3.5 0.00 0.00 0.00 79 1012.9
20260505031102 57 180 3.5 3.5 0.00 0.00 0.00 79 1012.9
20260505031000 57 171 2.6 3.5 0.00 0.00 0.00 79 1012.8
20260505030900 57 171 3.5 3.5 0.00 0.00 0.00 79 1012.9
20260505030802 57 165 2.6 3.5 0.00 0.00 0.00 79 1012.9
20260505030659 57 167 2.6 3.5 0.00 0.00 0.00 79 1012.9
20260505030559 57 180 1.7 3.5 0.00 0.00 0.00 79 1012.9
20260505030504 57 136 1.7 3.5 0.00 0.00 0.00 79 1012.9
20260505030400 57 136 2.6 3.5 0.00 0.00 0.00 79 1012.9
20260505030301 57 80 1.7 2.6 0.00 0.00 0.00 79 1012.9
20260505030202 57 80 1.7 2.6 0.00 0.00 0.00 79 1012.8
20260505030101 57 80 1.7 2.6 0.00 0.00 0.00 79 1012.8
20260505030008 57 80 0.9 2.6 0.00 0.00 0.00 79 1012.8
20260505025905 57 80 1.7 2.6 0.00 0.00 0.00 78 1012.8
20260505025800 57 80 2.6 2.6 0.00 0.00 0.00 78 1012.8
20260505025700 57 80 1.7 2.6 0.00 0.00 0.00 78 1012.9
20260505025502 57 80 0.9 3.5 0.00 0.00 0.00 78 1012.9
20260505025400 57 184 0.9 3.5 0.00 0.00 0.00 78 1012.9
20260505025308 57 184 0.9 3.5 0.00 0.00 0.00 77 1012.9
20260505025200 57 184 0.9 3.5 0.00 0.00 0.00 77 1012.9
20260505025100 57 184 0.0 3.5 0.00 0.00 0.00 77 1012.9
20260505025003 57 184 0.0 3.5 0.00 0.00 0.00 76 1012.8
20260505024759 57 184 0.0 3.5 0.00 0.00 0.00 76 1012.9
20260505024702 57 184 1.7 3.5 0.00 0.00 0.00 76 1012.9
20260505024600 57 184 1.7 3.5 0.00 0.00 0.00 76 1012.9
20260505024402 57 217 2.6 3.5 0.00 0.00 0.00 77 1012.9
20260505024300 57 217 2.6 3.5 0.00 0.00 0.00 77 1012.9
20260505024201 57 217 2.6 3.5 0.00 0.00 0.00 77 1013.0
20260505024105 57 217 2.6 3.5 0.00 0.00 0.00 77 1013.0
20260505024000 57 217 3.5 3.5 0.00 0.00 0.00 77 1013.0
20260505023802 57 217 0.0 3.5 0.00 0.00 0.00 76 1012.9
20260505023659 57 217 0.0 3.5 0.00 0.00 0.00 77 1013.0
20260505023559 57 217 0.0 3.5 0.00 0.00 0.00 77 1012.9
20260505023502 57 217 0.9 3.5 0.00 0.00 0.00 77 1013.0
20260505023359 57 217 1.7 3.5 0.00 0.00 0.00 77 1012.9
20260505023259 57 217 0.9 3.5 0.00 0.00 0.00 77 1013.0
20260505023202 57 217 1.7 3.5 0.00 0.00 0.00 77 1013.0
20260505023100 57 217 2.6 3.5 0.00 0.00 0.00 77 1013.0
20260505023000 57 217 2.6 3.5 0.00 0.00 0.00 77 1013.0
20260505022902 57 217 2.6 3.5 0.00 0.00 0.00 77 1013.0
20260505022759 57 217 3.5 3.5 0.00 0.00 0.00 77 1013.0
20260505022700 57 192 1.7 3.5 0.00 0.00 0.00 77 1013.0
20260505022603 57 192 2.6 3.5 0.00 0.00 0.00 77 1013.0
20260505022501 57 192 2.6 3.5 0.00 0.00 0.00 77 1013.0
20260505022400 57 192 1.7 3.5 0.00 0.00 0.00 77 1013.0
20260505022308 57 192 2.6 3.5 0.00 0.00 0.00 77 1013.0
20260505022100 57 192 0.9 3.5 0.00 0.00 0.00 77 1013.0
20260505022011 57 192 3.5 3.5 0.00 0.00 0.00 77 1013.0
20260505021900 57 213 2.6 3.5 0.00 0.00 0.00 77 1013.1
20260505021800 57 186 1.7 3.5 0.00 0.00 0.00 76 1013.1
20260505021702 56 186 3.5 3.5 0.00 0.00 0.00 76 1013.1
20260505021600 56 186 3.5 3.5 0.00 0.00 0.00 76 1013.1
20260505021459 56 186 2.6 3.5 0.00 0.00 0.00 76 1013.1
20260505021300 56 186 0.9 2.6 0.00 0.00 0.00 76 1013.1
20260505021159 56 186 1.7 2.6 0.00 0.00 0.00 76 1013.1
20260505021103 56 186 1.7 2.6 0.00 0.00 0.00 76 1013.2
20260505021008 56 186 1.7 2.6 0.00 0.00 0.00 76 1013.2
20260505020901 56 186 1.7 2.6 0.00 0.00 0.00 76 1013.2
20260505020804 56 186 1.7 2.6 0.00 0.00 0.00 76 1013.2
20260505020702 56 186 1.7 2.6 0.00 0.00 0.00 76 1013.2
20260505020400 56 186 0.9 1.7 0.00 0.00 0.00 76 1013.2
20260505020208 56 186 0.9 1.7 0.00 0.00 0.00 77 1013.2
20260505020123 56 186 0.9 2.6 0.00 0.00 0.00 77 1013.1
20260505020008 56 186 0.0 2.6 0.00 0.00 0.00 77 1013.2
20260505015908 56 186 0.9 2.6 0.00 0.00 0.00 77 1013.2
20260505015800 56 186 0.9 2.6 0.00 0.00 0.00 77 1013.2
20260505015700 56 186 0.9 2.6 0.00 0.00 0.00 77 1013.2
20260505015603 56 186 0.0 2.6 0.00 0.00 0.00 77 1013.2
20260505015500 56 186 0.0 2.6 0.00 0.00 0.00 77 1013.3
20260505015402 56 186 0.9 2.6 0.00 0.00 0.00 77 1013.3
20260505015100 56 186 1.7 4.3 0.00 0.00 0.00 76 1013.3
20260505015010 56 186 1.7 4.3 0.00 0.00 0.00 76 1013.3
20260505014900 56 186 2.6 4.3 0.00 0.00 0.00 76 1013.3
20260505014559 56 186 0.9 4.3 0.00 0.00 0.00 77 1013.3
20260505014500 56 186 1.7 4.3 0.00 0.00 0.00 77 1013.3
20260505014402 56 186 0.9 4.3 0.00 0.00 0.00 77 1013.4
20260505014259 55 186 0.9 4.3 0.00 0.00 0.00 78 1013.3
20260505014159 55 191 1.7 4.3 0.00 0.00 0.00 78 1013.4
20260505014103 55 189 4.3 4.3 0.00 0.00 0.00 78 1013.3
20260505014005 55 148 0.9 4.3 0.00 0.00 0.00 78 1013.3
20260505013902 55 148 3.5 4.3 0.00 0.00 0.00 79 1013.3
20260505013804 55 148 3.5 3.5 0.00 0.00 0.00 79 1013.4
20260505013600 55 165 0.0 4.3 0.00 0.00 0.00 80 1013.4
20260505013504 55 165 0.9 4.3 0.00 0.00 0.00 80 1013.4
20260505013359 55 165 0.9 4.3 0.00 0.00 0.00 80 1013.4
20260505013300 55 165 0.9 4.3 0.00 0.00 0.00 81 1013.4
20260505013202 55 165 1.7 4.3 0.00 0.00 0.00 81 1013.4
20260505013100 55 165 1.7 4.3 0.00 0.00 0.00 81 1013.4
20260505013007 55 165 1.7 4.3 0.00 0.00 0.00 81 1013.4
20260505012902 55 172 2.6 4.3 0.00 0.00 0.00 82 1013.4
20260505012800 55 140 0.9 4.3 0.00 0.00 0.00 82 1013.3
20260505012500 55 194 1.7 2.6 0.00 0.00 0.00 82 1013.4
20260505012304 55 194 0.9 1.7 0.00 0.00 0.00 82 1013.4
20260505012159 55 194 1.7 2.6 0.00 0.00 0.00 81 1013.4
20260505012059 55 194 0.9 4.3 0.00 0.00 0.00 81 1013.4
20260505012007 55 194 1.7 4.3 0.00 0.00 0.00 81 1013.4
20260505011859 55 194 1.7 4.3 0.00 0.00 0.00 81 1013.4
20260505011759 55 194 0.9 4.3 0.00 0.00 0.00 81 1013.4
20260505011702 55 194 0.9 4.3 0.00 0.00 0.00 81 1013.4
20260505011601 55 194 0.9 4.3 0.00 0.00 0.00 80 1013.4
20260505011459 54 194 0.9 4.3 0.00 0.00 0.00 80 1013.4
20260505011402 54 194 0.9 4.3 0.00 0.00 0.00 80 1013.5
20260505011300 54 194 0.9 4.3 0.00 0.00 0.00 80 1013.5
20260505011159 54 194 1.7 4.3 0.00 0.00 0.00 80 1013.6
20260505011102 54 194 2.6 4.3 0.00 0.00 0.00 80 1013.5
20260505011006 54 194 2.6 4.3 0.00 0.00 0.00 80 1013.5
20260505010900 54 194 2.6 4.3 0.00 0.00 0.00 80 1013.5
20260505010805 54 194 2.6 4.3 0.00 0.00 0.00 80 1013.5
20260505010700 54 194 3.5 4.3 0.00 0.00 0.00 80 1013.6
20260505010359 54 194 2.6 4.3 0.00 0.00 0.00 80 1013.6
20260505010202 54 194 3.5 4.3 0.00 0.00 0.00 80 1013.7
20260505010059 54 194 3.5 3.5 0.00 0.00 0.00 80 1013.7
20260505010008 54 194 1.7 3.5 0.00 0.00 0.00 80 1013.7
20260505005902 54 194 2.6 3.5 0.00 0.00 0.00 80 1013.7
20260505005801 54 194 0.9 2.6 0.00 0.00 0.00 79 1013.8
20260505005701 54 194 1.7 2.6 0.00 0.00 0.00 79 1013.8
20260505005602 54 194 1.7 2.6 0.00 0.00 0.00 79 1013.8
20260505005459 54 194 1.7 4.3 0.00 0.00 0.00 79 1013.8
20260505005359 54 194 0.9 4.3 0.00 0.00 0.00 79 1013.8
20260505005303 54 194 1.7 4.3 0.00 0.00 0.00 79 1013.9
20260505005159 54 194 0.9 4.3 0.00 0.00 0.00 79 1013.9
20260505005005 54 194 1.7 4.3 0.00 0.00 0.00 79 1013.9
20260505004800 54 194 0.0 4.3 0.00 0.00 0.00 78 1014.0
20260505004707 54 194 0.0 4.3 0.00 0.00 0.00 78 1014.0
20260505004604 54 194 0.9 4.3 0.00 0.00 0.00 78 1014.0
20260505004501 55 194 3.5 4.3 0.00 0.00 0.00 78 1014.0
20260505004200 55 213 0.9 1.7 0.00 0.00 0.00 77 1014.0
20260505004004 55 213 0.9 1.7 0.00 0.00 0.00 76 1013.9
20260505003859 55 213 0.0 1.7 0.00 0.00 0.00 76 1014.0
20260505003804 55 213 0.9 2.6 0.00 0.00 0.00 76 1014.0
20260505003700 55 213 0.9 2.6 0.00 0.00 0.00 75 1014.0
20260505003602 55 213 0.9 2.6 0.00 0.00 0.00 75 1013.9
20260505003504 55 213 0.9 2.6 0.00 0.00 0.00 75 1013.9
20260505003400 55 213 0.9 2.6 0.00 0.00 0.00 75 1013.9
20260505003259 55 213 0.0 3.5 0.00 0.00 0.00 75 1014.0
20260505003100 55 213 1.7 3.5 0.00 0.00 0.00 75 1014.0
20260505003005 55 213 0.9 3.5 0.00 0.00 0.00 75 1014.0
20260505002902 55 213 1.7 3.5 0.00 0.00 0.00 74 1014.0
20260505002759 55 213 2.6 3.5 0.00 0.00 0.00 74 1014.0
20260505002659 55 213 2.6 3.5 0.00 0.00 0.00 74 1014.0
20260505002602 55 213 2.6 3.5 0.00 0.00 0.00 74 1014.0
20260505002501 56 213 1.7 3.5 0.00 0.00 0.00 74 1014.0
20260505002400 56 213 2.6 3.5 0.00 0.00 0.00 74 1014.1
20260505002303 56 213 3.5 3.5 0.00 0.00 0.00 74 1014.1
20260505002159 56 213 2.6 3.5 0.00 0.00 0.00 74 1014.1
20260505002100 56 202 3.5 3.5 0.00 0.00 0.00 74 1014.1
20260505002006 56 202 3.5 3.5 0.00 0.00 0.00 73 1014.1
20260505001859 56 208 2.6 3.5 0.00 0.00 0.00 73 1014.1
20260505001759 56 223 3.5 3.5 0.00 0.00 0.00 73 1014.2
20260505001702 56 223 2.6 3.5 0.00 0.00 0.00 73 1014.2
20260505001600 57 223 2.6 3.5 0.00 0.00 0.00 73 1014.2
20260505001259 57 196 0.0 1.7 0.00 0.00 0.00 72 1014.2
20260505001159 57 196 0.9 1.7 0.00 0.00 0.00 72 1014.3
20260505001103 57 196 0.9 1.7 0.00 0.00 0.00 71 1014.3
20260505000802 57 196 0.0 1.7 0.00 0.00 0.00 68 1014.3
20260505000559 57 196 0.9 1.7 0.00 0.00 0.00 69 1014.3
20260505000503 58 196 0.9 1.7 0.00 0.00 0.00 69 1014.4
20260505000359 58 196 0.9 1.7 0.00 0.00 0.00 69 1014.4
20260505000259 58 196 0.0 1.7 0.00 0.00 0.00 69 1014.4
20260505000200 58 196 1.7 1.7 0.00 0.00 0.00 69 1014.4
20260505000121 58 196 0.9 2.6 0.00 0.00 0.00 68 1014.4
20260505000008 58 196 1.7 2.6 0.00 0.00 0.00 68 1014.4
20260504235901 58 196 0.0 2.6 0.00 0.00 0.00 68 1014.4
20260504235804 58 196 0.0 3.5 0.00 0.00 0.00 68 1014.4
20260504235600 58 196 0.0 3.5 0.00 0.00 0.00 68 1014.4
20260504235504 58 196 0.0 3.5 0.00 0.00 0.00 68 1014.4
20260504235304 58 196 0.9 3.5 0.00 0.00 0.00 68 1014.4
20260504235202 58 196 0.9 3.5 0.00 0.00 0.00 68 1014.5
20260504235100 59 196 1.7 3.5 0.00 0.00 0.00 68 1014.4
20260504235002 59 196 0.9 3.5 0.00 0.00 0.00 68 1014.4
20260504234905 59 196 1.7 3.5 0.00 0.00 0.00 68 1014.5
20260504234800 59 196 2.6 3.5 0.00 0.00 0.00 68 1014.5
20260504234701 59 197 1.7 3.5 0.00 0.00 0.00 68 1014.5
20260504234501 59 190 1.7 3.5 0.00 0.00 0.00 68 1014.5
20260504234401 59 190 2.6 3.5 0.00 0.00 0.00 68 1014.6
20260504234305 59 74 1.7 2.6 0.00 0.00 0.00 67 1014.6
20260504234201 60 74 1.7 2.6 0.00 0.00 0.00 67 1014.6
20260504234100 60 74 1.7 1.7 0.00 0.00 0.00 66 1014.6
20260504234005 60 74 1.7 1.7 0.00 0.00 0.00 66 1014.6
20260504233901 60 74 0.9 1.7 0.00 0.00 0.00 66 1014.6
20260504233800 60 74 0.9 1.7 0.00 0.00 0.00 66 1014.6
20260504233702 60 74 0.9 2.6 0.00 0.00 0.00 66 1014.6
20260504233559 60 74 0.9 2.6 0.00 0.00 0.00 66 1014.6
20260504233500 60 74 0.9 2.6 0.00 0.00 0.00 66 1014.7
20260504233301 61 74 0.9 2.6 0.00 0.00 0.00 66 1014.6
20260504233200 61 74 0.9 2.6 0.00 0.00 0.00 66 1014.7
20260504233106 61 74 0.9 2.6 0.00 0.00 0.00 65 1014.7
20260504233001 61 74 0.9 2.6 0.00 0.00 0.00 65 1014.8
20260504232859 61 74 0.9 2.6 0.00 0.00 0.00 65 1014.8
20260504232802 61 74 0.9 2.6 0.00 0.00 0.00 65 1014.7
20260504232559 61 74 0.0 1.7 0.00 0.00 0.00 64 1014.7
20260504232502 61 74 0.0 1.7 0.00 0.00 0.00 63 1014.7
20260504232400 61 74 0.0 2.6 0.00 0.00 0.00 63 1014.7
20260504232259 62 74 0.0 2.6 0.00 0.00 0.00 63 1014.7
20260504232202 62 74 0.0 2.6 0.00 0.00 0.00 63 1014.6
20260504232059 62 74 0.0 2.6 0.00 0.00 0.00 62 1014.6
20260504231902 62 74 0.0 2.6 0.00 0.00 0.00 61 1014.7
20260504231759 62 74 0.0 2.6 0.00 0.00 0.00 61 1014.7
20260504231659 62 74 1.7 2.6 0.00 0.00 0.00 62 1014.6
20260504231602 62 74 1.7 2.6 0.00 0.00 0.00 62 1014.7
20260504231500 62 74 1.7 2.6 0.00 0.00 0.00 61 1014.7
20260504231159 62 128 1.7 3.5 0.00 0.00 0.00 60 1014.7
20260504231059 62 128 1.7 3.5 0.00 0.00 0.00 60 1014.7
20260504231003 62 128 2.6 3.5 0.00 0.00 0.00 59 1014.7
20260504230900 62 128 0.9 4.3 0.00 0.00 0.00 59 1014.7
20260504230759 62 128 1.7 4.3 0.00 0.00 0.00 59 1014.8
20260504230500 63 128 2.6 6.1 0.00 0.00 0.00 57 1014.8
20260504230402 63 175 1.7 6.1 0.00 0.00 0.00 58 1014.8
20260504230300 63 175 0.9 7.0 0.00 0.00 0.00 57 1014.8
20260504230200 63 175 1.7 7.0 0.00 0.00 0.00 58 1014.8
20260504230004 63 169 1.7 7.0 0.00 0.00 0.00 58 1014.8
20260504225859 63 179 3.5 7.8 0.00 0.00 0.00 58 1014.8
20260504225802 63 196 2.6 7.8 0.00 0.00 0.00 57 1014.8
20260504225659 63 189 4.3 7.8 0.00 0.00 0.00 57 1014.8
20260504225559 63 194 3.5 7.8 0.00 0.00 0.00 57 1014.8
20260504225502 63 214 5.2 7.8 0.00 0.00 0.00 57 1014.8
20260504225359 63 203 4.3 7.8 0.00 0.00 0.00 58 1014.8
20260504225259 63 184 7.0 8.7 0.00 0.00 0.00 58 1014.8
20260504225202 63 189 5.2 9.6 0.00 0.00 0.00 57 1014.8
20260504225100 63 184 6.1 9.6 0.00 0.00 0.00 58 1014.7
20260504225005 63 187 5.2 9.6 0.00 0.00 0.00 57 1014.7
20260504224903 62 189 5.2 9.6 0.00 0.00 0.00 57 1014.8
20260504224759 62 190 6.1 9.6 0.00 0.00 0.00 58 1014.8
20260504224700 62 191 6.1 9.6 0.00 0.00 0.00 58 1014.8
20260504224500 62 177 5.2 9.6 0.00 0.00 0.00 59 1014.9
20260504224359 61 198 5.2 9.6 0.00 0.00 0.00 60 1014.9
20260504224302 61 191 7.0 9.6 0.00 0.00 0.00 61 1014.9
20260504224200 61 184 7.8 9.6 0.00 0.00 0.00 61 1014.9
20260504224059 61 192 6.1 9.6 0.00 0.00 0.00 62 1014.9
20260504224003 60 213 6.1 9.6 0.00 0.00 0.00 63 1015.0
20260504223900 60 188 5.2 9.6 0.00 0.00 0.00 64 1015.0
20260504223759 60 192 5.2 9.6 0.00 0.00 0.00 66 1015.0
20260504223559 60 184 4.3 6.1 0.00 0.00 0.00 68 1015.0
20260504223459 60 205 4.3 6.1 0.00 0.00 0.00 68 1015.0
20260504223403 60 190 2.6 4.3 0.00 0.00 0.00 68 1015.0
20260504223159 60 209 0.9 1.7 0.00 0.00 0.00 67 1015.0
20260504223102 60 209 0.0 1.7 0.00 0.00 0.00 66 1015.1
20260504223001 60 209 0.9 1.7 0.00 0.00 0.00 65 1015.1
20260504222859 60 209 0.0 1.7 0.00 0.00 0.00 65 1015.0
20260504222802 60 209 0.0 1.7 0.00 0.00 0.00 66 1015.0
20260504222700 60 209 1.7 2.6 0.00 0.00 0.00 66 1015.0
20260504222601 60 209 0.9 2.6 0.00 0.00 0.00 66 1015.1
20260504222504 60 209 0.9 2.6 0.00 0.00 0.00 65 1015.1
20260504222404 60 209 0.9 2.6 0.00 0.00 0.00 66 1015.0
20260504222302 60 209 0.9 2.6 0.00 0.00 0.00 66 1015.1
20260504222206 60 209 0.9 2.6 0.00 0.00 0.00 66 1015.1
20260504222100 60 209 0.9 2.6 0.00 0.00 0.00 66 1015.0
20260504222000 60 209 0.9 2.6 0.00 0.00 0.00 66 1015.0
20260504221904 60 209 0.9 2.6 0.00 0.00 0.00 65 1015.0
20260504221802 60 209 1.7 2.6 0.00 0.00 0.00 65 1015.0
20260504221659 60 209 0.9 2.6 0.00 0.00 0.00 65 1015.0
20260504221459 60 209 0.9 2.6 0.00 0.00 0.00 65 1015.1
20260504221400 60 209 0.9 2.6 0.00 0.00 0.00 65 1015.2
20260504221302 60 209 1.7 2.6 0.00 0.00 0.00 65 1015.2
20260504221159 60 209 2.6 2.6 0.00 0.00 0.00 65 1015.2
20260504221059 60 209 1.7 2.6 0.00 0.00 0.00 66 1015.2
20260504221004 60 209 1.7 2.6 0.00 0.00 0.00 66 1015.2
20260504220900 60 209 1.7 3.5 0.00 0.00 0.00 66 1015.2
20260504220759 60 209 2.6 3.5 0.00 0.00 0.00 66 1015.1
20260504220703 60 209 0.9 3.5 0.00 0.00 0.00 65 1015.1
20260504220559 60 209 0.9 3.5 0.00 0.00 0.00 63 1015.2
20260504220459 60 209 0.9 3.5 0.00 0.00 0.00 62 1015.2
20260504220259 60 209 0.9 4.3 0.00 0.00 0.00 62 1015.1
20260504220159 60 209 1.7 4.3 0.00 0.00 0.00 62 1015.1
20260504220119 61 209 1.7 4.3 0.00 0.00 0.00 62 1015.1
20260504220009 61 209 2.6 4.3 0.00 0.00 0.00 62 1015.2
20260504215902 61 209 2.6 4.3 0.00 0.00 0.00 62 1015.2
20260504215802 61 209 2.6 5.2 0.00 0.00 0.00 61 1015.2
20260504215600 61 209 3.5 6.1 0.00 0.00 0.00 61 1015.1
20260504215403 61 209 3.5 6.1 0.00 0.00 0.00 62 1015.2
20260504215300 61 205 3.5 6.1 0.00 0.00 0.00 62 1015.2
20260504215200 61 205 3.5 6.1 0.00 0.00 0.00 62 1015.2
20260504215103 61 205 3.5 6.1 0.00 0.00 0.00 62 1015.2
20260504215001 61 205 4.3 6.1 0.00 0.00 0.00 62 1015.2
20260504214900 61 202 3.5 7.0 0.00 0.00 0.00 62 1015.2
20260504214803 61 206 5.2 7.0 0.00 0.00 0.00 61 1015.2
20260504214700 61 205 5.2 7.8 0.00 0.00 0.00 62 1015.2
20260504214503 61 212 5.2 7.8 0.00 0.00 0.00 62 1015.2
20260504214400 61 205 3.5 7.8 0.00 0.00 0.00 61 1015.2
20260504214203 61 205 5.2 7.8 0.00 0.00 0.00 61 1015.2
20260504214100 61 210 5.2 7.8 0.00 0.00 0.00 61 1015.2
20260504214001 61 202 5.2 7.8 0.00 0.00 0.00 61 1015.2
20260504213903 61 206 5.2 7.8 0.00 0.00 0.00 62 1015.2
20260504213603 61 220 8.7 8.7 0.00 0.00 0.00 62 1015.2
20260504213501 61 204 4.3 8.7 0.00 0.00 0.00 63 1015.2
20260504213400 61 202 7.0 8.7 0.00 0.00 0.00 63 1015.2
20260504213303 61 197 6.1 7.0 0.00 0.00 0.00 63 1015.2
20260504213201 60 190 6.1 7.0 0.00 0.00 0.00 63 1015.2
20260504213100 60 207 4.3 5.2 0.00 0.00 0.00 63 1015.2
20260504212900 60 159 3.5 8.7 0.00 0.00 0.00 64 1015.2
20260504212800 60 164 0.9 8.7 0.00 0.00 0.00 64 1015.2
20260504212300 60 161 0.9 12.2 0.00 0.00 0.00 66 1015.2
20260504212200 60 161 0.9 12.2 0.00 0.00 0.00 67 1015.2
20260504212103 59 207 3.5 12.2 0.00 0.00 0.00 67 1015.3
20260504212001 59 202 3.5 12.2 0.00 0.00 0.00 68 1015.2
20260504211900 59 196 6.1 12.2 0.00 0.00 0.00 69 1015.3
20260504211803 58 188 8.7 12.2 0.00 0.00 0.00 71 1015.3
20260504211700 59 182 4.3 7.0 0.00 0.00 0.00 72 1015.4
20260504211601 59 194 5.2 6.1 0.00 0.00 0.00 72 1015.3
20260504211504 59 188 5.2 6.1 0.00 0.00 0.00 72 1015.3
20260504211400 59 200 3.5 5.2 0.00 0.00 0.00 72 1015.3
20260504211300 59 180 3.5 5.2 0.00 0.00 0.00 72 1015.4
20260504211203 59 198 3.5 4.3 0.00 0.00 0.00 72 1015.4
20260504211100 59 166 1.7 4.3 0.00 0.00 0.00 72 1015.4
20260504211001 59 164 2.6 4.3 0.00 0.00 0.00 72 1015.4
20260504210903 59 168 0.9 4.3 0.00 0.00 0.00 72 1015.4
20260504210701 59 190 3.5 6.1 0.00 0.00 0.00 71 1015.4
20260504210605 59 185 1.7 6.1 0.00 0.00 0.00 71 1015.4
20260504210405 59 227 1.7 6.1 0.00 0.00 0.00 71 1015.4
20260504210305 60 106 0.0 6.1 0.00 0.00 0.00 72 1015.4
20260504210202 60 106 0.9 6.1 0.00 0.00 0.00 71 1015.3
20260504205802 60 108 4.3 4.3 0.00 0.00 0.00 71 1015.4
20260504205706 60 118 4.3 4.3 0.00 0.00 0.00 70 1015.4
20260504205601 60 46 1.7 3.5 0.00 0.00 0.00 70 1015.3
20260504205501 60 46 0.0 3.5 0.00 0.00 0.00 70 1015.4
20260504205403 60 46 0.9 3.5 0.00 0.00 0.00 70 1015.4
20260504205300 60 46 2.6 3.5 0.00 0.00 0.00 70 1015.4
20260504205103 60 71 1.7 2.6 0.00 0.00 0.00 71 1015.4
20260504205002 60 71 1.7 2.6 0.00 0.00 0.00 72 1015.4
20260504204902 60 71 1.7 2.6 0.00 0.00 0.00 72 1015.4
20260504204804 60 71 0.9 2.6 0.00 0.00 0.00 72 1015.4
20260504204700 60 71 0.9 2.6 0.00 0.00 0.00 72 1015.4
20260504204504 60 71 2.6 2.6 0.00 0.00 0.00 72 1015.3
20260504204401 60 71 2.6 2.6 0.00 0.00 0.00 72 1015.4
20260504204301 60 71 1.7 2.6 0.00 0.00 0.00 72 1015.3
20260504204203 60 71 2.6 2.6 0.00 0.00 0.00 72 1015.3
20260504204100 60 71 1.7 1.7 0.00 0.00 0.00 72 1015.3
20260504204001 60 71 1.7 1.7 0.00 0.00 0.00 72 1015.3
20260504203502 60 71 0.9 2.6 0.00 0.00 0.00 74 1015.2
20260504203401 60 71 1.7 2.6 0.00 0.00 0.00 74 1015.2
20260504203303 60 71 0.9 2.6 0.00 0.00 0.00 74 1015.2
20260504203200 60 71 0.9 2.6 0.00 0.00 0.00 74 1015.2
20260504203006 60 71 0.0 2.6 0.00 0.00 0.00 74 1015.2
20260504202901 60 71 0.9 3.5 0.00 0.00 0.00 74 1015.2
20260504202704 60 71 1.7 3.5 0.00 0.00 0.00 74 1015.2
20260504202602 60 71 1.7 3.5 0.00 0.00 0.00 74 1015.2
20260504202405 61 71 0.9 3.5 0.00 0.00 0.00 74 1015.2
20260504202300 61 71 1.7 3.5 0.00 0.00 0.00 73 1015.1
20260504202205 60 71 1.7 3.5 0.00 0.00 0.00 73 1015.1
20260504202005 60 71 1.7 5.2 0.00 0.00 0.00 72 1015.1
20260504201701 60 207 1.7 5.2 0.00 0.00 0.00 71 1015.1
20260504201606 60 207 0.9 5.2 0.00 0.00 0.00 71 1015.1
20260504201506 60 207 3.5 5.2 0.00 0.00 0.00 71 1015.0
20260504201401 60 203 1.7 5.2 0.00 0.00 0.00 71 1015.1
20260504201300 60 216 0.9 5.2 0.00 0.00 0.00 71 1015.0
20260504201205 60 199 1.7 5.2 0.00 0.00 0.00 72 1015.0
20260504201003 60 221 2.6 5.2 0.00 0.00 0.00 73 1015.0
20260504200913 60 219 3.5 5.2 0.00 0.00 0.00 73 1015.0
20260504200803 60 219 3.5 5.2 0.00 0.00 0.00 74 1015.0
20260504200703 60 211 4.3 6.1 0.00 0.00 0.00 74 1015.0
20260504200608 60 206 3.5 6.1 0.00 0.00 0.00 74 1015.0
20260504200401 60 200 3.5 6.1 0.00 0.00 0.00 75 1014.9
20260504200303 60 196 3.5 6.1 0.00 0.00 0.00 75 1014.9
20260504200205 60 197 3.5 6.1 0.00 0.00 0.00 76 1014.9
20260504200141 60 194 3.5 6.1 0.00 0.00 0.00 76 1014.8
20260504195905 60 194 3.5 6.1 0.00 0.00 0.00 77 1014.9
20260504195801 60 191 5.2 6.1 0.00 0.00 0.00 78 1014.8
20260504195707 60 199 5.2 6.1 0.00 0.00 0.00 78 1014.8
20260504195604 60 201 5.2 6.1 0.00 0.00 0.00 78 1014.9
20260504195505 60 200 6.1 6.1 0.00 0.00 0.00 79 1014.9
20260504195404 60 188 4.3 6.1 0.00 0.00 0.00 79 1014.9
20260504195219 60 184 4.3 6.1 0.00 0.00 0.00 80 1014.9
20260504195111 60 188 5.2 6.1 0.00 0.00 0.00 80 1014.9
20260504195030 60 181 5.2 6.1 0.00 0.00 0.00 80 1014.9
20260504194942 60 177 4.3 6.1 0.00 0.00 0.00 80 1014.9
20260504194817 60 186 4.3 6.1 0.00 0.00 0.00 80 1014.9
20260504194710 60 190 4.3 6.1 0.00 0.00 0.00 80 1014.8
20260504194622 60 175 3.5 6.1 0.00 0.00 0.00 80 1014.8
20260504194540 60 173 2.6 6.1 0.00 0.00 0.00 80 1014.8
20260504194414 60 189 5.2 6.1 0.00 0.00 0.00 80 1014.8
20260504194311 60 189 4.3 6.1 0.00 0.00 0.00 80 1014.8
20260504194230 60 189 5.2 6.1 0.00 0.00 0.00 80 1014.8
20260504194027 61 184 3.5 5.2 0.00 0.00 0.00 79 1014.7
20260504193822 61 192 4.3 5.2 0.00 0.00 0.00 78 1014.7
20260504193617 61 186 3.5 4.3 0.00 0.00 0.00 78 1014.8
20260504193523 61 129 3.5 4.3 0.00 0.00 0.00 78 1014.8
20260504193419 61 129 0.9 3.5 0.00 0.00 0.00 78 1014.7
20260504193333 61 129 1.7 3.5 0.00 0.00 0.00 78 1014.7
20260504193219 62 129 2.6 3.5 0.00 0.00 0.00 78 1014.8
20260504192824 62 129 2.6 3.5 0.00 0.00 0.00 77 1014.7
20260504192705 62 129 1.7 3.5 0.00 0.00 0.00 77 1014.7
20260504192602 62 129 1.7 3.5 0.00 0.00 0.00 77 1014.8
20260504192505 62 129 0.9 3.5 0.00 0.00 0.00 77 1014.7
20260504192408 63 129 0.9 3.5 0.00 0.00 0.00 77 1014.7
20260504192304 63 129 0.9 3.5 0.00 0.00 0.00 77 1014.7
20260504192122 63 129 0.9 3.5 0.00 0.00 0.00 77 1014.7
20260504192005 63 129 2.6 3.5 0.00 0.00 0.00 77 1014.6
20260504191804 63 129 0.9 3.5 0.00 0.00 0.00 76 1014.6
20260504191744 63 129 0.9 3.5 0.00 0.00 0.00 76 1014.6
20260504191622 63 129 0.9 3.5 0.00 0.00 0.00 76 1014.6
20260504191506 63 129 0.9 3.5 0.00 0.00 0.00 76 1014.5
20260504191438 63 129 0.9 3.5 0.00 0.00 0.00 76 1014.5
20260504191329 63 129 0.9 3.5 0.00 0.00 0.00 76 1014.6
20260504191211 63 129 2.6 3.5 0.00 0.00 0.00 76 1014.6
20260504191004 63 129 0.9 2.6 0.00 0.00 0.00 75 1014.6
20260504190933 63 129 1.7 2.6 0.00 0.00 0.00 75 1014.6
20260504190815 64 129 0.9 1.7 0.00 0.00 0.00 75 1014.6
20260504190723 64 129 0.0 2.6 0.00 0.00 0.00 75 1014.6
20260504190601 64 129 1.7 2.6 0.00 0.00 0.00 75 1014.6
20260504190509 64 129 0.9 2.6 0.00 0.00 0.00 75 1014.6
20260504190301 64 129 0.9 2.6 0.00 0.00 0.00 76 1014.5
20260504190005 64 129 0.9 3.5 0.00 0.00 0.00 76 1014.6
20260504185907 64 129 0.9 3.5 0.00 0.00 0.00 76 1014.6
20260504185804 64 129 0.9 3.5 0.00 0.00 0.00 76 1014.6
20260504185700 64 129 0.9 3.5 0.00 0.00 0.00 76 1014.5
20260504185504 64 129 0.0 3.5 0.00 0.00 0.00 75 1014.5
20260504185408 64 129 1.7 3.5 0.00 0.00 0.00 75 1014.5
20260504185306 64 129 2.6 3.5 0.00 0.00 0.00 75 1014.5
20260504185202 65 129 3.5 3.5 0.00 0.00 0.00 75 1014.5
20260504185101 65 94 2.6 4.3 0.00 0.00 0.00 74 1014.5
20260504184901 65 94 1.7 4.3 0.00 0.00 0.00 74 1014.5
20260504184808 65 94 2.6 4.3 0.00 0.00 0.00 74 1014.5
20260504184707 65 94 1.7 4.3 0.00 0.00 0.00 74 1014.5
20260504184601 65 94 1.7 4.3 0.00 0.00 0.00 73 1014.5
20260504184501 65 94 1.7 4.3 0.00 0.00 0.00 73 1014.5
20260504184407 65 94 1.7 4.3 0.00 0.00 0.00 73 1014.5
20260504184301 65 94 2.6 4.3 0.00 0.00 0.00 73 1014.5
20260504184206 65 94 1.7 4.3 0.00 0.00 0.00 73 1014.5
20260504184103 65 94 1.7 4.3 0.00 0.00 0.00 73 1014.4
20260504184002 65 94 2.6 4.3 0.00 0.00 0.00 73 1014.4
20260504183901 65 94 1.7 2.6 0.00 0.00 0.00 73 1014.5
20260504183806 66 94 1.7 2.6 0.00 0.00 0.00 73 1014.5
20260504183704 66 94 1.7 2.6 0.00 0.00 0.00 72 1014.5
20260504183603 66 94 2.6 2.6 0.00 0.00 0.00 72 1014.5
20260504183507 66 94 1.7 2.6 0.00 0.00 0.00 72 1014.5
20260504183407 66 94 1.7 2.6 0.00 0.00 0.00 72 1014.5
20260504183301 66 94 2.6 2.6 0.00 0.00 0.00 71 1014.5
20260504183204 66 94 0.9 2.6 0.00 0.00 0.00 71 1014.5
20260504183002 66 94 0.9 1.7 0.00 0.00 0.00 70 1014.5
20260504182903 66 94 1.7 1.7 0.00 0.00 0.00 70 1014.5
20260504182800 67 94 1.7 1.7 0.00 0.00 0.00 70 1014.5
20260504182604 67 94 1.7 1.7 0.00 0.00 0.00 70 1014.5
20260504182401 67 94 0.9 2.6 0.00 0.00 0.00 70 1014.6
20260504182304 67 94 0.9 2.6 0.00 0.00 0.00 69 1014.5
20260504182201 67 94 0.9 2.6 0.00 0.00 0.00 69 1014.5
20260504182100 67 94 0.9 2.6 0.00 0.00 0.00 69 1014.5
20260504182004 67 94 0.9 4.3 0.00 0.00 0.00 69 1014.5
20260504181900 67 94 0.9 4.3 0.00 0.00 0.00 69 1014.5
20260504181801 67 94 0.9 4.3 0.00 0.00 0.00 69 1014.5
20260504181704 67 94 1.7 4.3 0.00 0.00 0.00 69 1014.5
20260504181600 68 94 0.9 4.3 0.00 0.00 0.00 68 1014.5
20260504181403 68 94 1.7 4.3 0.00 0.00 0.00 68 1014.4
20260504181301 68 94 2.6 4.3 0.00 0.00 0.00 68 1014.4
20260504181200 68 94 1.7 4.3 0.00 0.00 0.00 68 1014.4
20260504181002 68 94 2.6 4.3 0.00 0.00 0.00 68 1014.4
20260504180901 68 94 4.3 4.3 0.00 0.00 0.00 68 1014.4
20260504180803 68 94 1.7 4.3 0.00 0.00 0.00 68 1014.5
20260504180601 68 94 2.6 4.3 0.00 0.00 0.00 67 1014.4
20260504180505 68 94 2.6 4.3 0.00 0.00 0.00 67 1014.4
20260504180402 68 94 2.6 2.6 0.00 0.00 0.00 67 1014.4
20260504180115 68 108 1.7 2.6 0.00 0.00 0.00 66 1014.4
20260504180005 68 108 1.7 2.6 0.00 0.00 0.00 66 1014.4
20260504175903 68 108 0.9 3.5 0.00 0.00 0.00 66 1014.4
20260504175800 68 108 1.7 3.5 0.00 0.00 0.00 66 1014.5
20260504175700 68 108 1.7 3.5 0.00 0.00 0.00 66 1014.4
20260504175606 68 108 1.7 3.5 0.00 0.00 0.00 66 1014.4
20260504175401 68 108 0.9 3.5 0.00 0.00 0.00 66 1014.4
20260504175304 68 108 1.7 3.5 0.00 0.00 0.00 66 1014.4
20260504175200 68 108 1.7 3.5 0.00 0.00 0.00 66 1014.4
20260504175100 68 108 1.7 3.5 0.00 0.00 0.00 66 1014.4
20260504175006 68 108 0.9 3.5 0.00 0.00 0.00 66 1014.4
20260504174901 68 108 2.6 3.5 0.00 0.00 0.00 66 1014.4
20260504174801 68 108 2.6 3.5 0.00 0.00 0.00 66 1014.4
20260504174601 68 108 2.6 3.5 0.00 0.00 0.00 66 1014.4
20260504174501 68 108 2.6 4.3 0.00 0.00 0.00 66 1014.4
20260504174403 68 108 3.5 4.3 0.00 0.00 0.00 66 1014.4
20260504174300 68 108 3.5 4.3 0.00 0.00 0.00 65 1014.3
20260504174200 68 108 2.6 4.3 0.00 0.00 0.00 65 1014.3
20260504174104 68 108 3.5 4.3 0.00 0.00 0.00 66 1014.4
20260504174003 69 108 0.9 4.3 0.00 0.00 0.00 66 1014.4
20260504173901 69 110 2.6 4.3 0.00 0.00 0.00 66 1014.4
20260504173803 69 98 1.7 4.3 0.00 0.00 0.00 66 1014.4
20260504173701 69 107 2.6 6.1 0.00 0.00 0.00 66 1014.4
20260504173600 69 112 3.5 6.1 0.00 0.00 0.00 66 1014.4
20260504173504 69 112 4.3 6.1 0.00 0.00 0.00 66 1014.4
20260504173301 69 103 2.6 6.1 0.00 0.00 0.00 65 1014.4
20260504173203 69 110 3.5 6.1 0.00 0.00 0.00 65 1014.4
20260504173100 69 110 2.6 6.1 0.00 0.00 0.00 65 1014.4
20260504173004 69 92 1.7 6.1 0.00 0.00 0.00 64 1014.4
20260504172903 69 93 4.3 6.1 0.00 0.00 0.00 64 1014.4
20260504172659 69 94 6.1 6.1 0.00 0.00 0.00 64 1014.4
20260504172501 69 84 2.6 6.1 0.00 0.00 0.00 64 1014.4
20260504172401 69 79 4.3 6.1 0.00 0.00 0.00 64 1014.4
20260504172304 69 79 2.6 6.1 0.00 0.00 0.00 63 1014.4
20260504172201 69 85 2.6 6.1 0.00 0.00 0.00 63 1014.4
20260504172100 69 76 3.5 6.1 0.00 0.00 0.00 63 1014.4
20260504172006 69 90 4.3 6.1 0.00 0.00 0.00 63 1014.4
20260504171901 69 86 4.3 7.0 0.00 0.00 0.00 64 1014.4
20260504171800 69 78 3.5 7.0 0.00 0.00 0.00 64 1014.4
20260504171703 69 93 4.3 7.0 0.00 0.00 0.00 63 1014.5
20260504171502 69 82 4.3 7.0 0.00 0.00 0.00 63 1014.5
20260504171402 69 96 5.2 7.0 0.00 0.00 0.00 63 1014.4
20260504171202 69 86 2.6 7.0 0.00 0.00 0.00 62 1014.5
20260504171104 69 85 5.2 7.0 0.00 0.00 0.00 63 1014.5
20260504171002 69 84 5.2 7.0 0.00 0.00 0.00 62 1014.5
20260504170901 69 81 6.1 7.0 0.00 0.00 0.00 62 1014.5
20260504170803 69 97 4.3 7.0 0.00 0.00 0.00 62 1014.5
20260504170701 69 97 4.3 7.8 0.00 0.00 0.00 62 1014.5
20260504170600 69 97 4.3 7.8 0.00 0.00 0.00 62 1014.4
20260504170509 69 97 4.3 7.8 0.00 0.00 0.00 61 1014.4
20260504170401 69 87 5.2 7.8 0.00 0.00 0.00 61 1014.5
20260504170302 69 80 5.2 7.8 0.00 0.00 0.00 61 1014.5
20260504170204 69 92 4.3 7.8 0.00 0.00 0.00 61 1014.5
20260504160359 70 111 7.0 11.3 0.00 0.00 0.00 52 1014.6
20260504160301 70 122 4.3 11.3 0.00 0.00 0.00 53 1014.7
20260504160203 70 92 6.1 11.3 0.00 0.00 0.00 53 1014.6
20260504160123 70 88 8.7 12.2 0.00 0.00 0.00 53 1014.7
20260504151104 74 126 3.5 13.9 0.00 0.00 0.00 47 1014.7
20260504151001 74 100 8.7 13.9 0.00 0.00 0.00 47 1014.7
20260504150902 74 105 8.7 13.9 0.00 0.00 0.00 49 1014.7
20260504150803 74 119 7.0 13.9 0.00 0.00 0.00 48 1014.6
20260504150701 74 116 11.3 12.2 0.00 0.00 0.00 48 1014.6
20260504150600 74 117 7.0 12.2 0.00 0.00 0.00 48 1014.7
20260504150504 73 86 2.6 12.2 0.00 0.00 0.00 48 1014.6
20260504150401 73 103 3.5 12.2 0.00 0.00 0.00 47 1014.6
20260504150301 73 105 7.8 13.9 0.00 0.00 0.00 48 1014.6
20260504150203 73 117 6.1 13.9 0.00 0.00 0.00 49 1014.6
20260504141201 77 95 7.8 13.9 0.00 0.00 0.00 45 1014.7
20260504141103 77 77 3.5 13.9 0.00 0.00 0.00 46 1014.7
20260504141001 77 78 8.7 13.9 0.00 0.00 0.00 46 1014.6
20260504140901 77 78 4.3 13.9 0.00 0.00 0.00 42 1014.6
20260504140805 77 11 5.2 13.9 0.00 0.00 0.00 43 1014.6
20260504140700 77 43 6.1 13.9 0.00 0.00 0.00 43 1014.7
20260504140503 77 69 8.7 13.9 0.00 0.00 0.00 43 1014.6
20260504140401 77 57 12.2 13.9 0.00 0.00 0.00 47 1014.7
20260504140301 77 77 11.3 13.9 0.00 0.00 0.00 46 1014.6
20260504140203 77 94 13.9 14.8 0.00 0.00 0.00 45 1014.7
20260504140117 77 55 2.6 14.8 0.00 0.00 0.00 45 1014.7
20260504130702 78 101 7.8 12.2 0.00 0.00 0.00 48 1015.2
20260504130259 78 86 5.2 13.0 0.00 0.00 0.00 48 1015.2
20260504130202 78 97 5.2 13.0 0.00 0.00 0.00 50 1015.2
20260504120259 78 42 1.7 3.5 0.00 0.00 0.00 38 1015.5
20260504120117 78 35 2.6 3.5 0.00 0.00 0.00 38 1015.5
20260504110601 77 298 0.9 7.8 0.00 0.00 0.00 40 1016.1
20260504110401 77 5 0.9 7.8 0.00 0.00 0.00 44 1016.2
20260504110300 77 346 0.9 7.8 0.00 0.00 0.00 37 1016.2
20260504110203 77 346 3.5 7.8 0.00 0.00 0.00 40 1016.2
20260504100559 74 267 4.3 7.0 0.00 0.00 0.00 40 1016.6
20260504100504 74 273 4.3 7.0 0.00 0.00 0.00 41 1016.6
20260504100400 74 263 4.3 7.0 0.00 0.00 0.00 40 1016.6
20260504100204 74 275 7.0 7.0 0.00 0.00 0.00 40 1016.6
20260504100116 74 232 5.2 5.2 0.00 0.00 0.00 41 1016.7
20260504082006 73 138 1.7 4.3 0.00 0.00 0.00 48 1016.8
20260504081859 73 129 2.6 4.3 0.00 0.00 0.00 49 1016.8
20260504081800 73 128 2.6 4.3 0.00 0.00 0.00 49 1016.8
20260504081702 73 132 2.6 4.3 0.00 0.00 0.00 46 1016.8
20260504081600 72 142 4.3 4.3 0.00 0.00 0.00 49 1016.8
20260504081500 72 116 1.7 4.3 0.00 0.00 0.00 50 1016.8
20260504081403 72 126 3.5 3.5 0.00 0.00 0.00 48 1016.8
20260504081259 72 107 1.7 3.5 0.00 0.00 0.00 47 1016.8
20260504081159 72 118 1.7 3.5 0.00 0.00 0.00 49 1016.8
20260504081102 72 122 3.5 4.3 0.00 0.00 0.00 47 1016.9
20260504081000 72 59 0.9 4.3 0.00 0.00 0.00 47 1016.9
20260504080859 72 59 0.0 4.3 0.00 0.00 0.00 46 1016.8
20260504080802 73 59 0.9 4.3 0.00 0.00 0.00 48 1016.9
20260504080659 73 59 1.7 4.3 0.00 0.00 0.00 50 1016.9
20260504080602 73 78 3.5 4.3 0.00 0.00 0.00 49 1016.9
20260504080400 73 121 3.5 4.3 0.00 0.00 0.00 49 1016.9
20260504080300 72 121 2.6 4.3 0.00 0.00 0.00 51 1016.9
20260504080203 72 121 1.7 4.3 0.00 0.00 0.00 50 1016.8
20260504080134 72 119 3.5 4.3 0.00 0.00 0.00 53 1016.8
20260504070300 67 182 0.9 1.7 0.00 0.00 0.00 56 1016.7
20260504060203 59 111 0.0 0.9 0.00 0.00 0.00 75 1016.3
20260504060115 59 111 0.0 1.7 0.00 0.00 0.00 76 1016.3
20260504050659 48 207 1.7 3.5 0.00 0.00 0.00 87 1016.0
20260504050559 48 207 2.6 3.5 0.00 0.00 0.00 87 1016.0
20260504050502 48 208 2.6 2.6 0.00 0.00 0.00 87 1016.0
20260504050359 48 208 1.7 2.6 0.00 0.00 0.00 87 1016.0
20260504050202 47 219 2.6 2.6 0.00 0.00 0.00 87 1016.0
20260504045902 47 219 0.9 2.6 0.00 0.00 0.00 87 1015.9
20260504045759 47 219 1.7 2.6 0.00 0.00 0.00 87 1016.0
20260504045659 47 220 0.9 2.6 0.00 0.00 0.00 87 1016.0
20260504045602 47 220 0.9 2.6 0.00 0.00 0.00 87 1016.0